Wind_Speed
58 57 57 60 56 54 53 56 63 58 59 63 62 70 56 50 56 54 55 56 46 49 47 47 49 49 47 48 47 47 46 49 50 50 51 52 51 50 52 54 53 56 62 66
58 53 55 60 56 58 65 60 64 72 71 70 66 61 65 57 55 58 58 59 52 51 54 52 50 50 51 53 53 52 50 52 53 56 59 55 54 52 52 54 56 64 61 65
49 54 44 53 63 61 67 69 73 75 73 70 66 65 63 66 63 60 63 65 63 55 57 58 55 53 56 55 56 57 56 57 61 62 61 61 61 61 59 56 62 58 64 57
53 54 53 50 50 59 61 66 67 73 74 69 67 69 67 66 66 69 70 71 69 64 66 59 61 59 59 59 59 61 61 63 63 66 65 63 62 63 63 65 61 64 62 57
56 57 61 55 58 56 58 62 69 70 76 76 70 71 73 73 74 73 73 75 73 70 69 68 67 64 65 68 66 66 67 66 67 67 65 65 68 67 70 67 66 64 57 58
60 59 68 65 67 58 60 64 63 63 67 72 73 73 71 68 67 71 75 71 70 74 73 72 71 69 70 72 68 65 63 61 59 62 60 63 71 72 70 68 64 58 59 57
63 62 68 68 64 64 64 67 64 61 64 68 69 67 68 72 70 66 67 71 75 73 72 66 65 60 62 63 62 63 60 54 52 56 59 71 69 69 73 72 64 59 61 60
66 64 64 63 65 69 71 73 62 67 64 61 61 60 58 57 60 60 62 72 69 68 60 59 59 60 63 62 58 56 55 50 53 67 73 74 68 72 72 69 72 70 66 62
64 67 68 67 65 66 69 73 71 69 69 68 65 57 57 57 52 55 60 63 62 61 62 59 59 58 58 60 63 58 55 56 57 61 67 71 67 71 70 69 72 64 62 66
70 69 67 69 70 67 66 66 67 64 63 63 59 61 60 63 67 65 60 60 59 60 63 63 61 61 60 67 63 62 65 62 61 62 67 70 69 68 67 69 67 62 65 67
62 64 67 68 69 67 69 68 66 62 61 62 59 61 64 67 66 65 64 63 65 66 68 68 68 70 66 67 67 67 67 67 67 66 68 71 66 63 64 64 65 63 63 64
62 63 61 62 65 70 68 65 66 66 70 70 68 67 70 73 72 65 73 69 66 69 70 71 70 70 67 66 68 67 67 66 66 67 67 64 63 62 62 63 63 63 62 63
60 60 63 63 61 63 66 68 75 74 71 71 70 73 78 79 75 73 76 76 79 76 70 72 73 72 69 67 67 63 61 57 63 61 61 59 60 62 62 61 63 63 63 64
64 62 61 61 62 64 64 64 70 78 73 73 78 81 78 79 79 83 85 89 88 84 82 80 82 82 78 68 63 59 53 53 57 51 52 57 58 59 62 64 63 62 64 67
68 66 64 62 62 62 64 66 66 66 68 70 72 77 81 74 67 69 72 72 73 71 72 79 72 68 58 56 52 56 45 46 52 56 54 57 58 60 63 63 63 64 67 67
69 68 67 66 66 63 63 63 65 64 67 67 67 66 64 61 61 60 60 58 56 56 54 55 56 56 57 58 56 42 42 54 54 53 54 58 62 62 62 63 62 61 64 66
68 68 68 68 67 65 66 65 61 60 59 62 65 65 63 62 62 60 59 58 57 56 56 57 56 57 60 61 57 39 49 56 58 56 56 61 60 58 59 59 57 57 59 60
67 66 66 67 65 66 64 62 60 60 55 50 56 63 59 56 57 60 61 60 60 60 60 59 60 61 63 64 54 54 54 56 56 54 57 57 56 53 50 52 54 55 59 59
51 56 47 52 57 45 47 54 49 59 56 50 53 55 55 54 51 51 52 55 57 59 60 60 63 64 67 56 50 49 48 50 49 51 52 51 50 49 50 53 56 60 61 62
43 44 48 41 46 52 49 51 48 47 55 56 53 49 49 53 52 52 52 51 53 56 54 58 60 61 53 43 45 47 47 46 47 48 49 49 53 55 57 59 59 58 57 56
49 51 55 53 55 54 56 54 57 58 57 52 54 56 54 52 54 56 58 57 54 54 55 55 56 53 44 43 49 48 47 46 48 51 54 57 58 56 54 54 54 55 53 50
48 52 53 56 53 53 62 63 63 64 62 60 55 48 49 53 54 57 57 54 51 49 50 54 58 49 46 49 49 49 49 50 52 53 54 53 53 52 52 52 53 53 51 47
30 41 53 55 57 56 58 60 62 58 53 50 48 52 61 58 59 61 60 57 57 60 60 63 60 49 47 46 46 47 49 49 49 48 48 49 50 51 51 51 52 50 45 43
46 38 39 49 52 55 57 54 50 47 45 42 42 44 51 53 55 64 68 70 69 70 72 65 52 45 44 43 44 43 43 45 46 47 48 48 49 50 52 51 48 43 45 46
46 48 45 42 44 45 44 41 38 35 35 34 35 41 45 47 51 53 56 56 57 56 51 44 44 43 43 43 44 44 44 45 46 47 49 50 51 51 51 48 46 46 49 52
41 44 45 45 44 41 41 40 38 35 35 34 36 36 38 40 43 43 44 45 46 45 44 44 45 45 45 44 44 47 47 48 48 50 50 50 50 51 50 48 49 54 49 49
44 43 41 37 34 33 32 33 35 34 33 34 36 36 36 37 39 36 35 37 38 43 47 46 45 47 48 50 51 51 50 50 50 49 49 50 48 47 47 47 49 51 52 54
Wind_Direction
227 227 233 236 240 231 227 228 231 240 233 242 241 241 247 247 245 253 256 255 250 253 256 254 255 259 256 257 258 260 261 263 266 269 269 267 268 271 270 273 279 281 279 287
223 228 227 230 233 233 230 223 229 237 245 236 241 244 245 246 249 250 251 251 249 247 253 254 254 255 255 260 263 263 263 267 269 270 270 272 272 270 270 274 276 277 275 287
232 221 224 230 233 234 230 234 238 239 238 237 237 241 246 253 247 251 254 253 255 255 253 253 256 251 258 262 263 263 262 266 270 273 272 272 272 273 274 276 275 280 281 287
233 230 231 232 228 225 229 234 237 237 240 240 242 245 247 244 252 257 257 251 256 256 254 255 255 260 259 261 264 260 259 265 269 272 268 270 273 275 277 277 280 280 288 290
232 228 233 235 230 229 229 236 239 239 240 240 243 245 247 247 253 257 254 252 257 254 254 257 262 259 260 257 259 257 260 263 265 268 271 271 272 275 275 280 283 286 288 285
224 229 225 240 223 229 236 237 235 238 240 240 242 245 248 254 256 253 252 250 250 248 252 256 255 252 252 252 253 257 259 262 266 271 273 270 272 278 281 280 281 285 284 290
227 226 226 227 224 231 237 236 236 238 238 239 240 242 243 246 251 253 251 247 247 249 251 248 245 238 246 251 255 256 261 265 274 278 276 267 281 282 281 282 283 285 284 284
229 229 227 228 226 229 228 229 233 236 237 236 238 239 242 246 247 250 250 244 243 246 251 248 246 247 249 252 256 260 265 273 269 265 268 273 275 281 285 283 283 286 284 282
230 230 231 232 232 232 230 234 230 234 237 239 236 239 236 239 236 238 245 246 250 252 253 252 256 259 267 257 258 261 256 266 272 272 271 272 281 281 281 280 281 284 281 278
233 235 233 232 234 234 235 236 236 239 239 233 232 239 239 237 238 245 249 252 252 254 255 257 255 256 258 257 257 255 256 263 268 274 277 279 285 287 287 281 288 280 280 280
235 237 237 238 234 235 235 234 237 241 244 243 237 241 243 241 241 246 250 248 251 257 252 250 249 248 250 252 254 258 263 268 273 279 282 283 287 282 280 281 279 279 278 279
236 236 238 239 239 239 238 236 234 233 237 243 241 238 242 244 245 248 248 245 252 253 249 249 250 252 254 255 257 261 268 274 277 279 283 286 285 282 279 277 278 279 280 281
239 239 240 240 240 240 239 240 232 232 234 238 241 242 242 243 244 249 248 247 251 248 250 254 253 257 261 268 270 272 275 281 283 285 287 283 279 278 279 279 277 280 283 284
237 238 240 242 243 243 241 239 241 242 243 243 242 241 243 245 245 245 246 245 246 251 255 260 267 267 266 273 276 278 284 291 293 284 280 276 273 274 275 278 281 283 284 286
236 237 239 240 242 245 246 244 242 243 246 247 249 251 251 253 257 260 263 264 265 266 270 273 275 274 277 276 273 281 293 288 279 273 271 273 275 277 280 282 284 286 288 290
235 236 238 240 240 242 245 246 246 247 249 248 250 252 255 257 259 260 262 263 263 263 267 268 268 270 265 265 269 285 283 278 276 277 275 277 279 279 282 284 285 287 286 289
232 234 235 237 240 242 243 245 245 248 250 252 252 253 253 256 256 256 259 261 262 262 261 262 265 265 264 265 271 283 272 272 274 274 276 275 275 277 279 282 285 287 289 291
230 233 235 236 237 240 241 244 245 245 247 251 254 249 248 250 254 256 257 259 260 260 262 264 265 263 264 266 281 274 274 270 269 270 269 270 274 277 278 279 286 288 289 289
231 232 236 242 241 236 240 242 243 243 241 228 238 250 251 249 249 250 252 257 259 260 261 264 262 262 264 276 274 271 268 268 270 267 270 275 275 273 274 280 285 287 288 288
211 209 204 207 208 214 222 231 222 232 238 236 238 240 241 251 255 258 259 259 259 260 261 258 258 261 267 276 273 269 268 266 266 272 271 270 271 272 277 282 285 286 287 289
206 209 211 222 229 223 219 228 227 221 229 232 238 240 243 251 253 255 259 262 261 259 260 260 262 264 275 272 271 271 273 270 267 268 269 271 276 279 281 282 283 284 286 288
208 211 215 219 224 228 223 223 227 230 234 240 241 243 251 253 254 257 256 259 260 257 260 263 268 274 275 274 273 274 272 270 270 273 278 281 283 283 283 283 284 285 286 286
213 220 217 223 227 228 229 230 232 238 247 250 251 249 248 248 256 257 256 259 259 263 266 269 277 280 280 275 272 273 274 275 276 276 277 278 279 281 282 283 284 286 285 278
207 212 220 225 233 234 236 239 243 243 244 244 244 243 244 246 249 249 254 259 262 263 264 271 281 275 272 271 272 273 272 273 273 273 274 275 277 280 282 283 286 280 274 276
217 223 226 232 235 242 243 245 251 252 249 245 240 239 239 240 243 246 249 254 259 264 270 271 268 268 268 269 270 272 272 271 268 269 271 273 277 281 282 282 278 279 284 282
222 225 230 236 241 246 248 247 250 251 249 249 248 245 244 245 246 248 251 256 261 266 267 267 269 270 271 272 273 274 274 273 271 270 272 277 279 280 278 278 275 286 290 279
224 225 227 233 237 241 248 247 244 241 238 239 245 247 247 246 248 248 251 248 246 254 259 261 265 270 273 275 275 275 275 273 270 270 270 277 278 275 278 284 285 289 284 281
Height
5590 5596 5604 5611 5619 5628 5630 5631 5628 5642 5649 5645 5642 5647 5658 5665 5666 5670 5672 5675 5682 5684 5686 5688 5690 5691 5694 5694 5697 5698 5700 5699 5701 5703 5704 5704 5705 5707 5706 5701 5702 5698 5693 5698
5576 5583 5590 5597 5604 5610 5616 5613 5617 5624 5630 5624 5629 5638 5643 5649 5653 5655 5658 5662 5668 5672 5674 5675 5678 5679 5680 5681 5684 5685 5686 5686 5688 5688 5689 5691 5693 5694 5692 5689 5686 5681 5678 5682
5559 5567 5575 5581 5589 5595 5598 5600 5601 5605 5607 5614 5619 5626 5631 5635 5640 5642 5646 5649 5653 5659 5660 5662 5664 5666 5667 5669 5671 5672 5672 5673 5674 5677 5676 5677 5677 5678 5677 5673 5666 5667 5666 5668
5544 5553 5558 5567 5573 5579 5582 5580 5581 5590 5594 5602 5608 5612 5619 5623 5626 5628 5631 5632 5639 5643 5646 5650 5651 5652 5653 5656 5657 5657 5655 5657 5658 5661 5661 5660 5662 5663 5660 5654 5654 5649 5657 5652
5529 5538 5543 5550 5558 5562 5563 5565 5572 5577 5584 5590 5595 5597 5601 5608 5612 5616 5615 5619 5624 5628 5631 5636 5639 5640 5640 5640 5641 5641 5641 5641 5642 5642 5645 5645 5646 5650 5643 5642 5639 5636 5635 5635
5512 5521 5530 5535 5542 5544 5545 5550 5558 5564 5568 5573 5578 5581 5587 5594 5597 5599 5603 5607 5608 5609 5616 5619 5622 5622 5623 5623 5626 5627 5627 5626 5627 5624 5627 5627 5625 5634 5631 5626 5626 5624 5616 5623
5495 5503 5511 5516 5523 5528 5533 5538 5544 5550 5554 5557 5562 5569 5573 5579 5583 5585 5588 5591 5591 5596 5600 5603 5603 5605 5606 5608 5611 5612 5612 5612 5611 5609 5610 5603 5616 5616 5612 5608 5609 5607 5601 5601
5479 5486 5493 5498 5504 5511 5518 5524 5529 5533 5537 5542 5546 5554 5557 5563 5565 5568 5573 5574 5576 5580 5584 5586 5587 5590 5591 5593 5595 5597 5598 5597 5596 5594 5593 5591 5602 5598 5597 5588 5591 5589 5583 5586
5462 5469 5476 5483 5488 5492 5499 5505 5511 5516 5520 5524 5531 5537 5541 5547 5550 5554 5556 5559 5561 5565 5566 5568 5568 5570 5575 5576 5580 5583 5584 5584 5583 5578 5574 5571 5586 5582 5575 5569 5567 5578 5569 5563
5447 5453 5459 5466 5472 5477 5483 5489 5495 5498 5503 5508 5515 5520 5527 5531 5534 5537 5541 5543 5545 5548 5551 5552 5553 5554 5557 5557 5564 5572 5569 5567 5564 5562 5555 5553 5561 5560 5555 5546 5553 5551 5549 5546
5431 5437 5443 5450 5456 5462 5469 5473 5479 5483 5487 5493 5499 5504 5511 5515 5518 5521 5525 5528 5528 5533 5535 5535 5537 5537 5540 5541 5548 5552 5552 5549 5550 5546 5539 5536 5543 5534 5532 5531 5525 5527 5529 5526
5416 5422 5428 5434 5440 5446 5451 5460 5463 5468 5474 5478 5482 5488 5494 5498 5501 5505 5508 5510 5516 5515 5518 5520 5521 5520 5523 5528 5528 5533 5534 5537 5534 5532 5527 5523 5519 5514 5510 5508 5508 5508 5509 5508
5400 5406 5412 5418 5424 5428 5436 5441 5446 5452 5457 5461 5469 5473 5474 5480 5482 5485 5492 5494 5496 5499 5501 5503 5502 5501 5510 5509 5513 5512 5519 5521 5515 5512 5513 5505 5498 5495 5492 5489 5489 5491 5491 5491
5383 5391 5397 5403 5408 5412 5417 5425 5430 5434 5440 5444 5450 5451 5457 5459 5462 5466 5471 5477 5477 5478 5479 5480 5483 5485 5487 5487 5490 5494 5505 5507 5501 5496 5493 5486 5482 5478 5471 5471 5475 5476 5473 5470
5367 5374 5381 5387 5392 5396 5401 5407 5414 5418 5423 5429 5434 5433 5437 5442 5444 5448 5451 5455 5457 5458 5459 5461 5465 5466 5466 5466 5470 5484 5496 5492 5485 5477 5476 5465 5464 5462 5456 5456 5456 5455 5454 5454
5350 5358 5366 5369 5376 5381 5384 5387 5394 5405 5408 5414 5417 5418 5422 5426 5430 5434 5437 5440 5443 5444 5446 5448 5449 5452 5451 5450 5457 5487 5484 5471 5465 5461 5454 5451 5449 5443 5441 5438 5438 5439 5436 5436
5332 5340 5348 5354 5360 5363 5366 5373 5388 5389 5390 5393 5397 5402 5408 5412 5416 5422 5424 5426 5429 5430 5430 5433 5436 5436 5432 5435 5449 5482 5464 5456 5448 5441 5439 5437 5432 5429 5429 5428 5424 5420 5420 5419
5317 5325 5332 5338 5345 5346 5354 5360 5369 5373 5377 5377 5376 5382 5398 5400 5403 5406 5409 5411 5411 5411 5413 5421 5421 5416 5416 5420 5451 5448 5445 5437 5428 5430 5422 5418 5418 5419 5418 5414 5409 5406 5405 5404
5303 5312 5320 5324 5329 5336 5340 5349 5353 5359 5364 5363 5363 5369 5381 5384 5390 5393 5395 5394 5393 5394 5400 5406 5398 5397 5399 5425 5429 5426 5424 5417 5416 5410 5407 5405 5404 5404 5402 5399 5396 5390 5390 5388
5294 5300 5307 5307 5316 5324 5330 5335 5342 5343 5343 5347 5353 5360 5366 5375 5380 5378 5380 5381 5381 5377 5386 5383 5379 5380 5400 5416 5410 5405 5402 5399 5396 5394 5393 5392 5389 5389 5388 5386 5382 5377 5375 5374
5279 5286 5293 5299 5306 5313 5317 5321 5326 5329 5330 5335 5342 5352 5359 5364 5366 5366 5365 5363 5363 5362 5366 5367 5364 5373 5400 5399 5387 5387 5384 5382 5380 5378 5376 5375 5374 5375 5374 5372 5368 5364 5361 5359
5273 5280 5286 5291 5294 5297 5302 5306 5309 5315 5323 5330 5340 5344 5346 5350 5354 5353 5352 5350 5350 5349 5353 5353 5352 5379 5384 5375 5370 5368 5365 5364 5363 5361 5360 5359 5357 5357 5356 5355 5353 5350 5347 5345
5266 5270 5273 5277 5279 5283 5287 5291 5299 5309 5318 5326 5333 5337 5337 5338 5341 5338 5338 5336 5337 5337 5336 5334 5349 5365 5359 5354 5352 5350 5349 5348 5347 5347 5346 5344 5343 5341 5340 5338 5336 5334 5332 5330
5255 5259 5262 5266 5267 5272 5280 5290 5297 5303 5309 5313 5316 5318 5319 5320 5324 5322 5323 5321 5322 5320 5322 5330 5343 5340 5339 5338 5338 5338 5336 5335 5333 5332 5331 5330 5329 5327 5325 5323 5321 5320 5318 5316
5247 5251 5253 5258 5265 5272 5279 5283 5287 5291 5297 5300 5302 5303 5304 5306 5304 5308 5306 5307 5306 5310 5317 5323 5322 5322 5323 5323 5323 5322 5321 5320 5319 5319 5318 5316 5315 5313 5311 5310 5308 5307 5305 5303
5239 5242 5248 5256 5261 5266 5270 5274 5277 5281 5284 5287 5288 5290 5291 5293 5294 5295 5296 5297 5298 5302 5303 5305 5306 5306 5307 5308 5308 5307 5307 5306 5305 5304 5303 5302 5300 5298 5296 5295 5294 5292 5290 5287
5229 5235 5243 5248 5253 5256 5260 5263 5266 5268 5272 5275 5277 5279 5280 5282 5283 5286 5286 5288 5290 5289 5288 5289 5291 5291 5292 5292 5292 5291 5291 5291 5290 5289 5288 5288 5286 5284 5283 5281 5279 5277 5274 5271